Time,TemperatureF,DewpointF,PressureIn,WindDirection,WindDirectionDegrees,WindSpeedMPH,WindSpeedGustMPH,Humidity,HourlyPrecipIn,Conditions,Clouds,dailyrainin,SolarRadiationWatts/m^2,SoftwareType,DateUTC
2013-02-25 00:00:00,42.7,39.1,29.93,East,90,2.0,-999.0,87,0.01,,,0.09,0,Wunderground v.1.15,2013-02-25 08:00:00,
2013-02-25 00:05:00,42.7,39.1,29.93,East,90,2.0,-999.0,87,0.01,,,0.09,0,Wunderground v.1.15,2013-02-25 08:05:00,
2013-02-25 00:10:00,42.7,39.1,29.93,East,90,2.0,-999.0,87,0.01,,,0.09,0,Wunderground v.1.15,2013-02-25 08:10:00,
2013-02-25 00:11:00,42.6,39.0,29.93,ESE,110,2.0,7.0,87,0.01,,,0.00,0,weatherlink.com 1.10,2013-02-25 08:11:00,
2013-02-25 00:15:00,42.7,39.1,29.93,East,90,2.0,-999.0,87,0.01,,,0.09,0,Wunderground v.1.15,2013-02-25 08:15:00,
2013-02-25 00:20:00,42.7,39.1,29.93,East,90,2.0,-999.0,87,0.01,,,0.09,0,Wunderground v.1.15,2013-02-25 08:20:00,
2013-02-25 00:25:00,42.5,39.2,29.92,ESE,113,2.0,-999.0,88,0.02,,,0.09,0,Wunderground v.1.15,2013-02-25 08:25:00,
2013-02-25 00:26:00,42.4,39.0,29.93,ESE,104,4.0,7.0,88,0.01,,,0.00,0,weatherlink.com 1.10,2013-02-25 08:26:00,
2013-02-25 00:30:00,42.5,39.2,29.92,ESE,113,2.0,-999.0,88,0.02,,,0.09,0,Wunderground v.1.15,2013-02-25 08:30:00,
2013-02-25 00:35:00,42.5,39.2,29.92,ESE,113,2.0,-999.0,88,0.02,,,0.09,0,Wunderground v.1.15,2013-02-25 08:35:00,
2013-02-25 00:40:00,42.1,39.4,29.92,ESE,113,2.0,-999.0,90,0.03,,,0.09,0,Wunderground v.1.15,2013-02-25 08:40:00,
2013-02-25 00:41:00,42.0,39.0,29.92,ESE,107,1.0,17.0,89,0.02,,,0.01,0,weatherlink.com 1.10,2013-02-25 08:41:00,
2013-02-25 00:45:00,42.1,39.4,29.92,ESE,113,2.0,-999.0,90,0.03,,,0.09,0,Wunderground v.1.15,2013-02-25 08:45:00,
2013-02-25 00:50:00,42.1,39.4,29.92,ESE,113,2.0,-999.0,90,0.03,,,0.09,0,Wunderground v.1.15,2013-02-25 08:50:00,
2013-02-25 00:55:00,41.7,39.3,29.92,ENE,68,1.0,-999.0,91,0.03,,,0.09,0,Wunderground v.1.15,2013-02-25 08:55:00,
2013-02-25 00:56:00,41.6,39.0,29.92,West,271,2.0,4.0,91,0.04,,,0.03,0,weatherlink.com 1.10,2013-02-25 08:56:00,
2013-02-25 01:00:00,41.7,39.3,29.92,ENE,68,1.0,-999.0,91,0.03,,,0.09,0,Wunderground v.1.15,2013-02-25 09:00:00,
2013-02-25 01:05:00,41.7,39.3,29.92,ENE,68,1.0,-999.0,91,0.03,,,0.09,0,Wunderground v.1.15,2013-02-25 09:05:00,
2013-02-25 01:10:00,41.3,39.2,29.91,NE,45,1.0,-999.0,92,0.04,,,0.09,0,Wunderground v.1.15,2013-02-25 09:10:00,
2013-02-25 01:11:00,41.2,39.0,29.91,NNE,29,1.0,3.0,92,0.04,,,0.04,0,weatherlink.com 1.10,2013-02-25 09:11:00,
2013-02-25 01:15:00,41.3,39.2,29.91,NE,45,1.0,-999.0,92,0.04,,,0.09,0,Wunderground v.1.15,2013-02-25 09:15:00,
2013-02-25 01:20:00,41.3,39.2,29.91,NE,45,1.0,-999.0,92,0.04,,,0.09,0,Wunderground v.1.15,2013-02-25 09:20:00,
2013-02-25 01:25:00,40.9,39.0,29.90,ESE,113,1.0,-999.0,93,0.04,,,0.09,0,Wunderground v.1.15,2013-02-25 09:25:00,
2013-02-25 01:26:00,40.8,39.0,29.91,East,94,2.0,5.0,93,0.05,,,0.05,0,weatherlink.com 1.10,2013-02-25 09:26:00,
2013-02-25 01:30:00,40.9,39.0,29.90,ESE,113,1.0,-999.0,93,0.04,,,0.09,0,Wunderground v.1.15,2013-02-25 09:30:00,
2013-02-25 01:35:00,40.9,39.0,29.90,ESE,113,1.0,-999.0,93,0.04,,,0.09,0,Wunderground v.1.15,2013-02-25 09:35:00,
2013-02-25 01:40:00,40.6,39.0,29.90,ESE,113,2.0,-999.0,94,0.04,,,0.09,0,Wunderground v.1.15,2013-02-25 09:40:00,
2013-02-25 01:41:00,40.6,39.0,29.90,East,88,0.0,4.0,94,0.04,,,0.05,0,weatherlink.com 1.10,2013-02-25 09:41:00,
2013-02-25 01:45:00,40.6,39.0,29.90,ESE,113,2.0,-999.0,94,0.04,,,0.09,0,Wunderground v.1.15,2013-02-25 09:45:00,
2013-02-25 01:50:00,40.6,39.0,29.90,ESE,113,2.0,-999.0,94,0.04,,,0.09,0,Wunderground v.1.15,2013-02-25 09:50:00,
2013-02-25 01:55:00,40.5,38.9,29.90,ESE,113,1.0,-999.0,94,0.03,,,0.09,0,Wunderground v.1.15,2013-02-25 09:55:00,
2013-02-25 01:56:00,40.5,39.0,29.90,SE,144,3.0,4.0,94,0.03,,,0.06,0,weatherlink.com 1.10,2013-02-25 09:56:00,
2013-02-25 02:00:00,40.5,38.9,29.90,ESE,113,1.0,-999.0,94,0.03,,,0.09,0,Wunderground v.1.15,2013-02-25 10:00:00,
2013-02-25 02:05:00,40.5,38.9,29.90,ESE,113,1.0,-999.0,94,0.03,,,0.09,0,Wunderground v.1.15,2013-02-25 10:05:00,
2013-02-25 02:10:00,40.4,38.8,29.89,ESE,113,1.0,-999.0,94,0.03,,,0.09,0,Wunderground v.1.15,2013-02-25 10:10:00,
2013-02-25 02:11:00,40.4,39.0,29.89,ESE,117,1.0,7.0,94,0.03,,,0.07,0,weatherlink.com 1.10,2013-02-25 10:11:00,
2013-02-25 02:15:00,40.4,38.8,29.89,ESE,113,1.0,-999.0,94,0.03,,,0.09,0,Wunderground v.1.15,2013-02-25 10:15:00,
2013-02-25 02:20:00,40.4,38.8,29.89,ESE,113,1.0,-999.0,94,0.03,,,0.09,0,Wunderground v.1.15,2013-02-25 10:20:00,
2013-02-25 02:25:00,40.3,39.0,29.89,ESE,113,1.0,-999.0,95,0.02,,,0.09,0,Wunderground v.1.15,2013-02-25 10:25:00,
2013-02-25 02:26:00,40.2,39.0,29.89,ESE,117,0.0,4.0,95,0.02,,,0.07,0,weatherlink.com 1.10,2013-02-25 10:26:00,
2013-02-25 02:30:00,40.3,39.0,29.89,ESE,113,1.0,-999.0,95,0.02,,,0.09,0,Wunderground v.1.15,2013-02-25 10:30:00,
2013-02-25 02:35:00,40.3,39.0,29.89,ESE,113,1.0,-999.0,95,0.02,,,0.09,0,Wunderground v.1.15,2013-02-25 10:35:00,
2013-02-25 02:40:00,40.2,38.9,29.88,East,90,0.0,-999.0,95,0.01,,,0.09,0,Wunderground v.1.15,2013-02-25 10:40:00,
2013-02-25 02:41:00,40.1,39.0,29.89,ESE,120,0.0,4.0,95,0.01,,,0.07,0,weatherlink.com 1.10,2013-02-25 10:41:00,
2013-02-25 02:45:00,40.2,38.9,29.88,East,90,0.0,-999.0,95,0.01,,,0.09,0,Wunderground v.1.15,2013-02-25 10:45:00,
2013-02-25 02:50:00,40.2,38.9,29.88,East,90,0.0,-999.0,95,0.01,,,0.09,0,Wunderground v.1.15,2013-02-25 10:50:00,
2013-02-25 02:55:00,40.1,38.8,29.88,SE,135,1.0,-999.0,95,0.02,,,0.09,0,Wunderground v.1.15,2013-02-25 10:55:00,
2013-02-25 02:56:00,40.0,39.0,29.88,East,94,0.0,4.0,95,0.02,,,0.08,0,weatherlink.com 1.10,2013-02-25 10:56:00,
2013-02-25 03:00:00,40.1,38.8,29.88,SE,135,1.0,-999.0,95,0.02,,,0.09,0,Wunderground v.1.15,2013-02-25 11:00:00,
2013-02-25 03:05:00,40.1,38.8,29.88,SE,135,1.0,-999.0,95,0.02,,,0.09,0,Wunderground v.1.15,2013-02-25 11:05:00,
2013-02-25 03:10:00,40.0,39.0,29.87,ESE,113,1.0,-999.0,96,0.01,,,0.09,0,Wunderground v.1.15,2013-02-25 11:10:00,
2013-02-25 03:11:00,40.0,39.0,29.88,ESE,113,3.0,5.0,95,0.01,,,0.08,0,weatherlink.com 1.10,2013-02-25 11:11:00,
2013-02-25 03:15:00,40.0,39.0,29.87,ESE,113,1.0,-999.0,96,0.01,,,0.09,0,Wunderground v.1.15,2013-02-25 11:15:00,
2013-02-25 03:20:00,40.0,39.0,29.87,ESE,113,1.0,-999.0,96,0.01,,,0.09,0,Wunderground v.1.15,2013-02-25 11:20:00,
2013-02-25 03:25:00,40.0,39.0,29.88,East,90,2.0,-999.0,96,0.01,,,0.09,0,Wunderground v.1.15,2013-02-25 11:25:00,
2013-02-25 03:26:00,40.0,39.0,29.87,East,100,1.0,7.0,96,0.01,,,0.08,0,weatherlink.com 1.10,2013-02-25 11:26:00,
2013-02-25 03:30:00,40.0,39.0,29.88,East,90,2.0,-999.0,96,0.01,,,0.09,0,Wunderground v.1.15,2013-02-25 11:30:00,
2013-02-25 03:35:00,40.0,39.0,29.88,East,90,2.0,-999.0,96,0.01,,,0.09,0,Wunderground v.1.15,2013-02-25 11:35:00,
2013-02-25 03:40:00,40.3,39.0,29.88,ESE,113,2.0,-999.0,95,0.02,,,0.09,0,Wunderground v.1.15,2013-02-25 11:40:00,
2013-02-25 03:41:00,40.4,39.0,29.88,ESE,118,1.0,9.0,95,0.02,,,0.09,0,weatherlink.com 1.10,2013-02-25 11:41:00,
2013-02-25 03:45:00,40.3,39.0,29.88,ESE,113,2.0,-999.0,95,0.02,,,0.09,0,Wunderground v.1.15,2013-02-25 11:45:00,
2013-02-25 03:50:00,40.3,39.0,29.88,ESE,113,2.0,-999.0,95,0.02,,,0.09,0,Wunderground v.1.15,2013-02-25 11:50:00,
2013-02-25 03:55:00,40.6,39.3,29.88,SE,135,1.0,-999.0,95,0.01,,,0.09,0,Wunderground v.1.15,2013-02-25 11:55:00,
2013-02-25 03:56:00,40.7,39.0,29.88,SE,138,2.0,8.0,95,0.01,,,0.09,0,weatherlink.com 1.10,2013-02-25 11:56:00,
2013-02-25 04:00:00,40.6,39.3,29.88,SE,135,1.0,-999.0,95,0.01,,,0.09,0,Wunderground v.1.15,2013-02-25 12:00:00,
2013-02-25 04:05:00,40.6,39.3,29.88,SE,135,1.0,-999.0,95,0.01,,,0.09,0,Wunderground v.1.15,2013-02-25 12:05:00,
2013-02-25 04:10:00,40.8,39.5,29.88,ENE,68,1.0,-999.0,95,0.01,,,0.09,0,Wunderground v.1.15,2013-02-25 12:10:00,
2013-02-25 04:11:00,40.9,40.0,29.88,NE,36,0.0,6.0,95,0.01,,,0.09,0,weatherlink.com 1.10,2013-02-25 12:11:00,
2013-02-25 04:15:00,40.8,39.5,29.88,ENE,68,1.0,-999.0,95,0.01,,,0.09,0,Wunderground v.1.15,2013-02-25 12:15:00,
2013-02-25 04:20:00,40.8,39.5,29.88,ENE,68,1.0,-999.0,95,0.01,,,0.09,0,Wunderground v.1.15,2013-02-25 12:20:00,
2013-02-25 04:25:00,41.1,39.8,29.88,WSW,248,1.0,-999.0,95,0.01,,,0.09,0,Wunderground v.1.15,2013-02-25 12:25:00,
2013-02-25 04:26:00,41.1,40.0,29.88,WSW,248,1.0,3.0,95,0.01,,,0.09,0,weatherlink.com 1.10,2013-02-25 12:26:00,
2013-02-25 04:30:00,41.1,39.8,29.88,WSW,248,1.0,-999.0,95,0.01,,,0.09,0,Wunderground v.1.15,2013-02-25 12:30:00,
2013-02-25 04:35:00,41.1,39.8,29.88,WSW,248,1.0,-999.0,95,0.01,,,0.09,0,Wunderground v.1.15,2013-02-25 12:35:00,
2013-02-25 04:40:00,41.3,40.0,29.90,West,270,1.0,-999.0,95,0.00,,,0.09,0,Wunderground v.1.15,2013-02-25 12:40:00,
2013-02-25 04:41:00,41.4,40.0,29.88,WSW,242,1.0,5.0,95,0.00,,,0.09,0,weatherlink.com 1.10,2013-02-25 12:41:00,
2013-02-25 04:45:00,41.3,40.0,29.90,West,270,1.0,-999.0,95,0.00,,,0.09,0,Wunderground v.1.15,2013-02-25 12:45:00,
2013-02-25 04:50:00,41.3,40.0,29.90,West,270,1.0,-999.0,95,0.00,,,0.09,0,Wunderground v.1.15,2013-02-25 12:50:00,
2013-02-25 04:55:00,41.5,39.9,29.90,West,270,1.0,-999.0,94,0.00,,,0.09,0,Wunderground v.1.15,2013-02-25 12:55:00,
2013-02-25 04:56:00,41.5,40.0,29.90,West,265,0.0,5.0,94,0.00,,,0.09,0,weatherlink.com 1.10,2013-02-25 12:56:00,
2013-02-25 05:00:00,41.5,39.9,29.90,West,270,1.0,-999.0,94,0.00,,,0.09,0,Wunderground v.1.15,2013-02-25 13:00:00,
2013-02-25 05:05:00,41.5,39.9,29.90,West,270,1.0,-999.0,94,0.00,,,0.09,0,Wunderground v.1.15,2013-02-25 13:05:00,
2013-02-25 05:10:00,41.5,39.9,29.90,SW,225,1.0,-999.0,94,0.00,,,0.09,0,Wunderground v.1.15,2013-02-25 13:10:00,
2013-02-25 05:11:00,41.5,40.0,29.90,WSW,239,1.0,4.0,94,0.00,,,0.09,0,weatherlink.com 1.10,2013-02-25 13:11:00,
2013-02-25 05:15:00,41.5,39.9,29.90,SW,225,1.0,-999.0,94,0.00,,,0.09,0,Wunderground v.1.15,2013-02-25 13:15:00,
2013-02-25 05:20:00,41.5,39.9,29.90,SW,225,1.0,-999.0,94,0.00,,,0.09,0,Wunderground v.1.15,2013-02-25 13:20:00,
2013-02-25 05:25:00,41.5,39.9,29.91,WSW,248,1.0,-999.0,94,0.00,,,0.09,0,Wunderground v.1.15,2013-02-25 13:25:00,
2013-02-25 05:26:00,41.5,40.0,29.90,South,173,2.0,4.0,94,0.00,,,0.09,0,weatherlink.com 1.10,2013-02-25 13:26:00,
2013-02-25 05:30:00,41.5,39.9,29.91,WSW,248,1.0,-999.0,94,0.00,,,0.09,0,Wunderground v.1.15,2013-02-25 13:30:00,
2013-02-25 05:35:00,41.5,39.9,29.91,WSW,248,1.0,-999.0,94,0.00,,,0.09,0,Wunderground v.1.15,2013-02-25 13:35:00,
2013-02-25 05:40:00,41.5,39.6,29.91,WSW,248,2.0,-999.0,93,0.00,,,0.09,0,Wunderground v.1.15,2013-02-25 13:40:00,
2013-02-25 05:41:00,41.5,40.0,29.91,WSW,256,4.0,5.0,93,0.00,,,0.09,0,weatherlink.com 1.10,2013-02-25 13:41:00,
2013-02-25 05:45:00,41.5,39.6,29.91,WSW,248,2.0,-999.0,93,0.00,,,0.09,0,Wunderground v.1.15,2013-02-25 13:45:00,
2013-02-25 05:50:00,41.5,39.6,29.91,WSW,248,2.0,-999.0,93,0.00,,,0.09,0,Wunderground v.1.15,2013-02-25 13:50:00,
2013-02-25 05:55:00,41.6,39.7,29.91,WSW,248,2.0,-999.0,93,0.00,,,0.09,0,Wunderground v.1.15,2013-02-25 13:55:00,
2013-02-25 05:56:00,41.6,40.0,29.91,WSW,245,1.0,5.0,93,0.00,,,0.09,0,weatherlink.com 1.10,2013-02-25 13:56:00,
2013-02-25 06:00:00,41.6,39.7,29.91,WSW,248,2.0,-999.0,93,0.00,,,0.09,0,Wunderground v.1.15,2013-02-25 14:00:00,
2013-02-25 06:05:00,41.6,39.7,29.91,WSW,248,2.0,-999.0,93,0.00,,,0.09,0,Wunderground v.1.15,2013-02-25 14:05:00,
2013-02-25 06:10:00,41.6,39.4,29.92,WSW,248,2.0,-999.0,92,0.00,,,0.09,0,Wunderground v.1.15,2013-02-25 14:10:00,
2013-02-25 06:11:00,41.6,40.0,29.91,SSW,199,0.0,6.0,92,0.00,,,0.09,0,weatherlink.com 1.10,2013-02-25 14:11:00,
2013-02-25 06:15:00,41.6,39.4,29.92,WSW,248,2.0,-999.0,92,0.00,,,0.09,0,Wunderground v.1.15,2013-02-25 14:15:00,
2013-02-25 06:20:00,41.6,39.4,29.92,WSW,248,2.0,-999.0,92,0.00,,,0.09,0,Wunderground v.1.15,2013-02-25 14:20:00,
2013-02-25 06:25:00,41.6,39.4,29.92,WSW,248,1.0,-999.0,92,0.00,,,0.09,0,Wunderground v.1.15,2013-02-25 14:25:00,
2013-02-25 06:26:00,41.6,40.0,29.91,WSW,252,0.0,5.0,92,0.00,,,0.09,0,weatherlink.com 1.10,2013-02-25 14:26:00,
2013-02-25 06:30:00,41.6,39.4,29.92,WSW,248,1.0,-999.0,92,0.00,,,0.09,0,Wunderground v.1.15,2013-02-25 14:30:00,
2013-02-25 06:35:00,41.6,39.4,29.92,WSW,248,1.0,-999.0,92,0.00,,,0.09,0,Wunderground v.1.15,2013-02-25 14:35:00,
2013-02-25 06:40:00,41.6,39.4,29.92,SW,225,1.0,-999.0,92,0.00,,,0.09,0,Wunderground v.1.15,2013-02-25 14:40:00,
2013-02-25 06:41:00,41.6,40.0,29.92,SSW,194,4.0,4.0,92,0.00,,,0.09,0,weatherlink.com 1.10,2013-02-25 14:41:00,
2013-02-25 06:45:00,41.6,39.4,29.92,SW,225,1.0,-999.0,92,0.00,,,0.09,0,Wunderground v.1.15,2013-02-25 14:45:00,
2013-02-25 06:55:00,41.6,39.2,29.91,WSW,248,1.0,-999.0,91,0.00,,,0.09,0,Wunderground v.1.15,2013-02-25 14:55:00,
2013-02-25 06:56:00,41.6,39.0,29.92,WSW,247,2.0,3.0,91,0.00,,,0.09,0,weatherlink.com 1.10,2013-02-25 14:56:00,
2013-02-25 07:00:00,41.6,39.2,29.91,WSW,248,1.0,-999.0,91,0.00,,,0.09,0,Wunderground v.1.15,2013-02-25 15:00:00,
2013-02-25 07:05:00,41.6,39.2,29.91,WSW,248,1.0,-999.0,91,0.00,,,0.09,0,Wunderground v.1.15,2013-02-25 15:05:00,
2013-02-25 07:10:00,41.7,39.3,29.92,WSW,248,1.0,-999.0,91,0.00,,,0.09,1,Wunderground v.1.15,2013-02-25 15:10:00,
2013-02-25 07:11:00,41.7,39.0,29.91,WSW,258,0.0,4.0,91,0.00,,,0.09,0,weatherlink.com 1.10,2013-02-25 15:11:00,
2013-02-25 07:15:00,41.7,39.3,29.92,WSW,248,1.0,-999.0,91,0.00,,,0.09,1,Wunderground v.1.15,2013-02-25 15:15:00,
2013-02-25 07:20:00,41.7,39.3,29.92,WSW,248,1.0,-999.0,91,0.00,,,0.09,1,Wunderground v.1.15,2013-02-25 15:20:00,
2013-02-25 07:25:00,41.6,38.9,29.92,West,270,1.0,-999.0,90,0.00,,,0.09,9,Wunderground v.1.15,2013-02-25 15:25:00,
2013-02-25 07:26:00,41.6,39.0,29.92,SW,217,0.0,4.0,90,0.00,,,0.09,11,weatherlink.com 1.10,2013-02-25 15:26:00,
2013-02-25 07:30:00,41.6,38.9,29.92,West,270,1.0,-999.0,90,0.00,,,0.09,9,Wunderground v.1.15,2013-02-25 15:30:00,
2013-02-25 07:35:00,41.6,38.9,29.92,West,270,1.0,-999.0,90,0.00,,,0.09,9,Wunderground v.1.15,2013-02-25 15:35:00,
2013-02-25 07:40:00,41.7,39.0,29.93,West,270,2.0,-999.0,90,0.00,,,0.09,14,Wunderground v.1.15,2013-02-25 15:40:00,
2013-02-25 07:41:00,41.7,39.0,29.92,WSW,257,2.0,5.0,90,0.00,,,0.09,14,weatherlink.com 1.10,2013-02-25 15:41:00,
2013-02-25 07:45:00,41.7,39.0,29.93,West,270,2.0,-999.0,90,0.00,,,0.09,14,Wunderground v.1.15,2013-02-25 15:45:00,
2013-02-25 07:50:00,41.7,39.0,29.93,West,270,2.0,-999.0,90,0.00,,,0.09,14,Wunderground v.1.15,2013-02-25 15:50:00,
2013-02-25 07:55:00,41.7,38.7,29.93,WSW,248,2.0,-999.0,89,0.00,,,0.09,20,Wunderground v.1.15,2013-02-25 15:55:00,
2013-02-25 07:56:00,41.8,39.0,29.93,ESE,115,2.0,5.0,89,0.00,,,0.09,25,weatherlink.com 1.10,2013-02-25 15:56:00,
2013-02-25 08:00:00,41.7,38.7,29.93,WSW,248,2.0,-999.0,89,0.00,,,0.09,20,Wunderground v.1.15,2013-02-25 16:00:00,
2013-02-25 08:05:00,41.7,38.7,29.93,WSW,248,2.0,-999.0,89,0.00,,,0.09,20,Wunderground v.1.15,2013-02-25 16:05:00,
2013-02-25 08:10:00,41.8,38.8,29.94,SW,225,2.0,-999.0,89,0.00,,,0.09,28,Wunderground v.1.15,2013-02-25 16:10:00,
2013-02-25 08:11:00,41.8,39.0,29.93,WSW,248,3.0,6.0,88,0.00,,,0.09,33,weatherlink.com 1.10,2013-02-25 16:11:00,
2013-02-25 08:15:00,41.8,38.8,29.94,SW,225,2.0,-999.0,89,0.00,,,0.09,28,Wunderground v.1.15,2013-02-25 16:15:00,
2013-02-25 08:20:00,41.8,38.8,29.94,SW,225,2.0,-999.0,89,0.00,,,0.09,28,Wunderground v.1.15,2013-02-25 16:20:00,
2013-02-25 08:25:00,41.9,38.6,29.94,SW,225,2.0,-999.0,88,0.00,,,0.09,39,Wunderground v.1.15,2013-02-25 16:25:00,
2013-02-25 08:27:00,41.9,39.0,29.94,SW,234,0.0,7.0,88,0.00,,,0.09,44,weatherlink.com 1.10,2013-02-25 16:27:00,
2013-02-25 08:30:00,41.9,38.6,29.94,SW,225,2.0,-999.0,88,0.00,,,0.09,39,Wunderground v.1.15,2013-02-25 16:30:00,
2013-02-25 08:35:00,41.9,38.6,29.94,SW,225,2.0,-999.0,88,0.00,,,0.09,39,Wunderground v.1.15,2013-02-25 16:35:00,
2013-02-25 08:40:00,41.8,38.5,29.96,WSW,248,2.0,-999.0,88,0.00,,,0.09,25,Wunderground v.1.15,2013-02-25 16:40:00,
2013-02-25 08:42:00,41.8,38.0,29.94,WSW,251,2.0,6.0,87,0.00,,,0.09,18,weatherlink.com 1.10,2013-02-25 16:42:00,
2013-02-25 08:45:00,41.8,38.5,29.96,WSW,248,2.0,-999.0,88,0.00,,,0.09,25,Wunderground v.1.15,2013-02-25 16:45:00,
2013-02-25 08:50:00,41.8,38.5,29.96,WSW,248,2.0,-999.0,88,0.00,,,0.09,25,Wunderground v.1.15,2013-02-25 16:50:00,
2013-02-25 08:55:00,41.6,38.6,29.95,SW,225,2.0,-999.0,89,0.00,,,0.09,26,Wunderground v.1.15,2013-02-25 16:55:00,
2013-02-25 08:57:00,41.5,38.0,29.96,SW,220,1.0,5.0,88,0.00,,,0.09,46,weatherlink.com 1.10,2013-02-25 16:57:00,
2013-02-25 09:00:00,41.6,38.6,29.95,SW,225,2.0,-999.0,89,0.00,,,0.09,26,Wunderground v.1.15,2013-02-25 17:00:00,
2013-02-25 09:05:00,41.6,38.6,29.95,SW,225,2.0,-999.0,89,0.00,,,0.09,26,Wunderground v.1.15,2013-02-25 17:05:00,
2013-02-25 09:10:00,41.4,38.7,29.96,WSW,248,2.0,-999.0,90,0.00,,,0.09,43,Wunderground v.1.15,2013-02-25 17:10:00,
2013-02-25 09:12:00,41.3,39.0,29.95,SW,227,1.0,5.0,90,0.00,,,0.09,44,weatherlink.com 1.10,2013-02-25 17:12:00,
2013-02-25 09:20:00,41.4,38.7,29.96,WSW,248,2.0,-999.0,90,0.00,,,0.09,43,Wunderground v.1.15,2013-02-25 17:20:00,
2013-02-25 09:25:00,41.3,38.3,29.97,South,180,1.0,-999.0,89,0.00,,,0.09,60,Wunderground v.1.15,2013-02-25 17:25:00,
2013-02-25 09:27:00,41.4,38.0,29.96,WSW,248,1.0,5.0,89,0.00,,,0.09,60,weatherlink.com 1.10,2013-02-25 17:27:00,
2013-02-25 09:30:00,41.3,38.3,29.97,South,180,1.0,-999.0,89,0.00,,,0.09,60,Wunderground v.1.15,2013-02-25 17:30:00,
2013-02-25 09:35:00,41.3,38.3,29.97,South,180,1.0,-999.0,89,0.00,,,0.09,60,Wunderground v.1.15,2013-02-25 17:35:00,
2013-02-25 09:40:00,41.6,38.6,29.98,West,270,1.0,-999.0,89,0.00,,,0.09,48,Wunderground v.1.15,2013-02-25 17:40:00,
2013-02-25 09:42:00,41.6,39.0,29.97,West,268,0.0,4.0,89,0.00,,,0.09,49,weatherlink.com 1.10,2013-02-25 17:42:00,
2013-02-25 09:45:00,41.6,38.6,29.98,West,270,1.0,-999.0,89,0.00,,,0.09,48,Wunderground v.1.15,2013-02-25 17:45:00,
2013-02-25 09:50:00,41.6,38.6,29.98,West,270,1.0,-999.0,89,0.00,,,0.09,48,Wunderground v.1.15,2013-02-25 17:50:00,
2013-02-25 09:55:00,41.9,38.6,29.99,West,270,1.0,-999.0,88,0.00,,,0.09,50,Wunderground v.1.15,2013-02-25 17:55:00,
2013-02-25 09:57:00,41.9,39.0,29.98,West,259,1.0,5.0,88,0.00,,,0.09,40,weatherlink.com 1.10,2013-02-25 17:57:00,
2013-02-25 10:00:00,41.9,38.6,29.99,West,270,1.0,-999.0,88,0.00,,,0.09,50,Wunderground v.1.15,2013-02-25 18:00:00,
2013-02-25 10:05:00,41.9,38.6,29.99,West,270,1.0,-999.0,88,0.00,,,0.09,50,Wunderground v.1.15,2013-02-25 18:05:00,
2013-02-25 10:10:00,42.0,38.7,29.99,West,270,1.0,-999.0,88,0.00,,,0.09,48,Wunderground v.1.15,2013-02-25 18:10:00,
2013-02-25 10:12:00,42.1,39.0,29.99,West,273,0.0,3.0,89,0.00,,,0.09,49,weatherlink.com 1.10,2013-02-25 18:12:00,
2013-02-25 10:15:00,42.0,38.7,29.99,West,270,1.0,-999.0,88,0.00,,,0.09,48,Wunderground v.1.15,2013-02-25 18:15:00,
2013-02-25 10:20:00,42.0,38.7,29.99,West,270,1.0,-999.0,88,0.00,,,0.09,48,Wunderground v.1.15,2013-02-25 18:20:00,
2013-02-25 10:25:00,42.2,39.2,29.99,West,270,1.0,-999.0,89,0.00,,,0.09,56,Wunderground v.1.15,2013-02-25 18:25:00,
2013-02-25 10:27:00,42.3,39.0,29.99,ENE,67,0.0,4.0,89,0.00,,,0.09,51,weatherlink.com 1.10,2013-02-25 18:27:00,
2013-02-25 10:30:00,42.2,39.2,29.99,West,270,1.0,-999.0,89,0.00,,,0.09,56,Wunderground v.1.15,2013-02-25 18:30:00,
2013-02-25 10:35:00,42.2,39.2,29.99,West,270,1.0,-999.0,89,0.00,,,0.09,56,Wunderground v.1.15,2013-02-25 18:35:00,
2013-02-25 10:40:00,42.5,39.2,30.00,SW,225,1.0,-999.0,88,0.00,,,0.09,84,Wunderground v.1.15,2013-02-25 18:40:00,
2013-02-25 10:42:00,42.7,39.0,29.99,SW,219,0.0,5.0,88,0.00,,,0.09,91,weatherlink.com 1.10,2013-02-25 18:42:00,
2013-02-25 10:45:00,42.5,39.2,30.00,SW,225,1.0,-999.0,88,0.00,,,0.09,84,Wunderground v.1.15,2013-02-25 18:45:00,
2013-02-25 10:50:00,42.5,39.2,30.00,SW,225,1.0,-999.0,88,0.00,,,0.09,84,Wunderground v.1.15,2013-02-25 18:50:00,
2013-02-25 10:55:00,43.0,39.4,30.02,SW,225,1.0,-999.0,87,0.00,,,0.09,120,Wunderground v.1.15,2013-02-25 18:55:00,
2013-02-25 10:57:00,43.1,40.0,30.00,SW,233,1.0,4.0,87,0.00,,,0.09,114,weatherlink.com 1.10,2013-02-25 18:57:00,
2013-02-25 11:00:00,43.0,39.4,30.02,SW,225,1.0,-999.0,87,0.00,,,0.09,120,Wunderground v.1.15,2013-02-25 19:00:00,
2013-02-25 11:05:00,43.0,39.4,30.02,SW,225,1.0,-999.0,87,0.00,,,0.09,120,Wunderground v.1.15,2013-02-25 19:05:00,
2013-02-25 11:10:00,43.4,39.8,30.02,NW,315,1.0,-999.0,87,0.00,,,0.09,79,Wunderground v.1.15,2013-02-25 19:10:00,
2013-02-25 11:12:00,43.4,40.0,30.02,NW,313,0.0,3.0,88,0.00,,,0.09,76,weatherlink.com 1.10,2013-02-25 19:12:00,
2013-02-25 11:15:00,43.4,39.8,30.02,NW,315,1.0,-999.0,87,0.00,,,0.09,79,Wunderground v.1.15,2013-02-25 19:15:00,
2013-02-25 11:20:00,43.4,39.8,30.02,NW,315,1.0,-999.0,87,0.00,,,0.09,79,Wunderground v.1.15,2013-02-25 19:20:00,
2013-02-25 11:25:00,43.5,39.6,30.03,West,270,0.0,-999.0,86,0.00,,,0.09,104,Wunderground v.1.15,2013-02-25 19:25:00,
2013-02-25 11:27:00,43.6,40.0,30.02,West,272,0.0,1.0,88,0.00,,,0.09,88,weatherlink.com 1.10,2013-02-25 19:27:00,
2013-02-25 11:30:00,43.5,39.6,30.03,West,270,0.0,-999.0,86,0.00,,,0.09,104,Wunderground v.1.15,2013-02-25 19:30:00,
2013-02-25 11:35:00,43.5,39.6,30.03,West,270,0.0,-999.0,86,0.00,,,0.09,104,Wunderground v.1.15,2013-02-25 19:35:00,
2013-02-25 11:40:00,43.8,39.9,30.04,N/A,-737280,0.0,-999.0,86,0.00,,,0.09,156,Wunderground v.1.15,2013-02-25 19:40:00,
2013-02-25 11:42:00,43.9,40.0,30.03,West,272,0.0,0.0,87,0.00,,,0.09,211,weatherlink.com 1.10,2013-02-25 19:42:00,
2013-02-25 11:45:00,43.8,39.9,30.04,N/A,-737280,0.0,-999.0,86,0.00,,,0.09,156,Wunderground v.1.15,2013-02-25 19:45:00,
2013-02-25 11:50:00,43.8,39.9,30.04,N/A,-737280,0.0,-999.0,86,0.00,,,0.09,156,Wunderground v.1.15,2013-02-25 19:50:00,
2013-02-25 11:55:00,44.5,40.6,30.04,SE,135,1.0,-999.0,86,0.00,,,0.09,274,Wunderground v.1.15,2013-02-25 19:55:00,
2013-02-25 11:57:00,44.8,41.0,30.04,SSE,148,1.0,2.0,85,0.00,,,0.09,267,weatherlink.com 1.10,2013-02-25 19:57:00,
2013-02-25 12:00:00,44.5,40.6,30.04,SE,135,1.0,-999.0,86,0.00,,,0.09,274,Wunderground v.1.15,2013-02-25 20:00:00,
2013-02-25 12:05:00,44.5,40.6,30.04,SE,135,1.0,-999.0,86,0.00,,,0.09,274,Wunderground v.1.15,2013-02-25 20:05:00,
2013-02-25 12:10:00,45.5,40.3,30.05,ESE,113,0.0,-999.0,82,0.00,,,0.09,282,Wunderground v.1.15,2013-02-25 20:10:00,
2013-02-25 12:12:00,45.7,41.0,30.04,ESE,103,0.0,2.0,84,0.00,,,0.09,264,weatherlink.com 1.10,2013-02-25 20:12:00,
2013-02-25 12:15:00,45.5,40.3,30.05,ESE,113,0.0,-999.0,82,0.00,,,0.09,282,Wunderground v.1.15,2013-02-25 20:15:00,
2013-02-25 12:20:00,45.5,40.3,30.05,ESE,113,0.0,-999.0,82,0.00,,,0.09,282,Wunderground v.1.15,2013-02-25 20:20:00,
2013-02-25 12:25:00,46.3,40.8,30.05,SSE,158,1.0,-999.0,81,0.00,,,0.09,265,Wunderground v.1.15,2013-02-25 20:25:00,
2013-02-25 12:27:00,46.5,41.0,30.05,SSE,167,0.0,4.0,80,0.00,,,0.09,346,weatherlink.com 1.10,2013-02-25 20:27:00,
2013-02-25 12:30:00,46.3,40.8,30.05,SSE,158,1.0,-999.0,81,0.00,,,0.09,265,Wunderground v.1.15,2013-02-25 20:30:00,
2013-02-25 12:35:00,46.3,40.8,30.05,SSE,158,1.0,-999.0,81,0.00,,,0.09,265,Wunderground v.1.15,2013-02-25 20:35:00,
2013-02-25 12:40:00,46.8,40.3,30.06,West,270,1.0,-999.0,78,0.00,,,0.09,308,Wunderground v.1.15,2013-02-25 20:40:00,
2013-02-25 12:42:00,46.9,41.0,30.05,East,101,2.0,5.0,79,0.00,,,0.09,422,weatherlink.com 1.10,2013-02-25 20:42:00,
2013-02-25 12:45:00,46.8,40.3,30.06,West,270,1.0,-999.0,78,0.00,,,0.09,308,Wunderground v.1.15,2013-02-25 20:45:00,
2013-02-25 12:50:00,46.8,40.3,30.06,West,270,1.0,-999.0,78,0.00,,,0.09,308,Wunderground v.1.15,2013-02-25 20:50:00,
2013-02-25 12:55:00,47.3,40.5,30.06,SE,135,1.0,-999.0,77,0.00,,,0.09,307,Wunderground v.1.15,2013-02-25 20:55:00,
2013-02-25 12:57:00,47.4,41.0,30.05,SE,134,1.0,4.0,77,0.00,,,0.09,285,weatherlink.com 1.10,2013-02-25 20:57:00,
2013-02-25 13:00:00,47.3,40.5,30.06,SE,135,1.0,-999.0,77,0.00,,,0.09,307,Wunderground v.1.15,2013-02-25 21:00:00,
2013-02-25 13:05:00,47.3,40.5,30.06,SE,135,1.0,-999.0,77,0.00,,,0.09,307,Wunderground v.1.15,2013-02-25 21:05:00,
2013-02-25 13:10:00,48.0,39.0,30.07,West,270,1.0,-999.0,71,0.00,,,0.09,417,Wunderground v.1.15,2013-02-25 21:10:00,
2013-02-25 13:12:00,48.2,39.0,30.06,SW,230,1.0,5.0,71,0.00,,,0.09,311,weatherlink.com 1.10,2013-02-25 21:12:00,
2013-02-25 13:15:00,48.0,39.0,30.07,West,270,1.0,-999.0,71,0.00,,,0.09,417,Wunderground v.1.15,2013-02-25 21:15:00,
2013-02-25 13:20:00,48.0,39.0,30.07,West,270,1.0,-999.0,71,0.00,,,0.09,417,Wunderground v.1.15,2013-02-25 21:20:00,
2013-02-25 13:25:00,48.3,40.0,30.07,SE,135,0.0,-999.0,73,0.00,,,0.09,303,Wunderground v.1.15,2013-02-25 21:25:00,
2013-02-25 13:27:00,48.4,39.0,30.07,SE,136,0.0,3.0,70,0.00,,,0.09,330,weatherlink.com 1.10,2013-02-25 21:27:00,
2013-02-25 13:30:00,48.3,40.0,30.07,SE,135,0.0,-999.0,73,0.00,,,0.09,303,Wunderground v.1.15,2013-02-25 21:30:00,
2013-02-25 13:35:00,48.3,40.0,30.07,SE,135,0.0,-999.0,73,0.00,,,0.09,303,Wunderground v.1.15,2013-02-25 21:35:00,
2013-02-25 13:40:00,48.1,38.4,30.07,NW,315,1.0,-999.0,69,0.00,,,0.09,244,Wunderground v.1.15,2013-02-25 21:40:00,
2013-02-25 13:42:00,47.9,39.0,30.07,NW,304,1.0,3.0,70,0.00,,,0.09,269,weatherlink.com 1.10,2013-02-25 21:42:00,
2013-02-25 13:45:00,48.1,38.4,30.07,NW,315,1.0,-999.0,69,0.00,,,0.09,244,Wunderground v.1.15,2013-02-25 21:45:00,
2013-02-25 13:50:00,48.1,38.4,30.07,NW,315,1.0,-999.0,69,0.00,,,0.09,244,Wunderground v.1.15,2013-02-25 21:50:00,
2013-02-25 13:55:00,48.0,40.5,30.07,NE,45,1.0,-999.0,75,0.00,,,0.09,243,Wunderground v.1.15,2013-02-25 21:55:00,
2013-02-25 13:57:00,48.0,40.0,30.07,ESE,118,1.0,3.0,73,0.00,,,0.09,200,weatherlink.com 1.10,2013-02-25 21:57:00,
2013-02-25 14:00:00,48.0,40.5,30.07,NE,45,1.0,-999.0,75,0.00,,,0.09,243,Wunderground v.1.15,2013-02-25 22:00:00,
2013-02-25 14:05:00,48.0,40.5,30.07,NE,45,1.0,-999.0,75,0.00,,,0.09,243,Wunderground v.1.15,2013-02-25 22:05:00,
2013-02-25 14:10:00,47.8,38.8,30.08,WNW,293,2.0,-999.0,71,0.00,,,0.09,283,Wunderground v.1.15,2013-02-25 22:10:00,
2013-02-25 14:12:00,47.6,38.0,30.07,West,280,1.0,7.0,70,0.00,,,0.09,422,weatherlink.com 1.10,2013-02-25 22:12:00,
2013-02-25 14:15:00,47.8,38.8,30.08,WNW,293,2.0,-999.0,71,0.00,,,0.09,283,Wunderground v.1.15,2013-02-25 22:15:00,
2013-02-25 14:20:00,47.8,38.8,30.08,WNW,293,2.0,-999.0,71,0.00,,,0.09,283,Wunderground v.1.15,2013-02-25 22:20:00,
2013-02-25 14:25:00,48.6,38.9,30.08,North,0,2.0,-999.0,69,0.00,,,0.09,458,Wunderground v.1.15,2013-02-25 22:25:00,
2013-02-25 14:27:00,49.0,39.0,30.08,North,355,2.0,4.0,69,0.00,,,0.09,466,weatherlink.com 1.10,2013-02-25 22:27:00,
2013-02-25 14:30:00,48.6,38.9,30.08,North,0,2.0,-999.0,69,0.00,,,0.09,458,Wunderground v.1.15,2013-02-25 22:30:00,
2013-02-25 14:35:00,48.6,38.9,30.08,North,0,2.0,-999.0,69,0.00,,,0.09,458,Wunderground v.1.15,2013-02-25 22:35:00,
2013-02-25 14:40:00,49.7,35.9,30.08,NNW,338,2.0,-999.0,59,0.00,,,0.09,429,Wunderground v.1.15,2013-02-25 22:40:00,
2013-02-25 14:42:00,49.7,37.0,30.08,North,5,3.0,6.0,62,0.00,,,0.09,452,weatherlink.com 1.10,2013-02-25 22:42:00,
2013-02-25 14:45:00,49.7,35.9,30.08,NNW,338,2.0,-999.0,59,0.00,,,0.09,429,Wunderground v.1.15,2013-02-25 22:45:00,
2013-02-25 14:50:00,49.7,35.9,30.08,NNW,338,2.0,-999.0,59,0.00,,,0.09,429,Wunderground v.1.15,2013-02-25 22:50:00,
2013-02-25 14:55:00,49.4,35.2,30.09,North,0,4.0,-999.0,58,0.00,,,0.09,380,Wunderground v.1.15,2013-02-25 22:55:00,
2013-02-25 14:57:00,49.2,35.0,30.08,WNW,291,6.0,11.0,58,0.00,,,0.09,404,weatherlink.com 1.10,2013-02-25 22:57:00,
2013-02-25 15:00:00,49.4,35.2,30.09,North,0,4.0,-999.0,58,0.00,,,0.09,380,Wunderground v.1.15,2013-02-25 23:00:00,
2013-02-25 15:05:00,49.4,35.2,30.09,North,0,4.0,-999.0,58,0.00,,,0.09,380,Wunderground v.1.15,2013-02-25 23:05:00,
2013-02-25 15:10:00,48.9,34.3,30.10,WNW,293,5.0,-999.0,57,0.00,,,0.09,339,Wunderground v.1.15,2013-02-25 23:10:00,
2013-02-25 15:12:00,48.8,34.0,30.09,West,267,3.0,9.0,57,0.00,,,0.09,250,weatherlink.com 1.10,2013-02-25 23:12:00,
2013-02-25 15:15:00,48.9,34.3,30.10,WNW,293,5.0,-999.0,57,0.00,,,0.09,339,Wunderground v.1.15,2013-02-25 23:15:00,
2013-02-25 15:20:00,48.9,34.3,30.10,WNW,293,5.0,-999.0,57,0.00,,,0.09,339,Wunderground v.1.15,2013-02-25 23:20:00,
2013-02-25 15:25:00,48.8,34.2,30.09,NW,315,4.0,-999.0,57,0.00,,,0.09,253,Wunderground v.1.15,2013-02-25 23:25:00,
2013-02-25 15:27:00,49.0,34.0,30.10,WNW,302,8.0,11.0,57,0.00,,,0.09,276,weatherlink.com 1.10,2013-02-25 23:27:00,
2013-02-25 15:30:00,48.8,34.2,30.09,NW,315,4.0,-999.0,57,0.00,,,0.09,253,Wunderground v.1.15,2013-02-25 23:30:00,
2013-02-25 15:35:00,48.8,34.2,30.09,NW,315,4.0,-999.0,57,0.00,,,0.09,253,Wunderground v.1.15,2013-02-25 23:35:00,
2013-02-25 15:40:00,48.7,33.2,30.10,WNW,293,5.0,-999.0,55,0.00,,,0.09,244,Wunderground v.1.15,2013-02-25 23:40:00,
2013-02-25 15:42:00,48.7,33.0,30.09,WNW,300,4.0,13.0,54,0.00,,,0.09,248,weatherlink.com 1.10,2013-02-25 23:42:00,
2013-02-25 15:45:00,48.7,33.2,30.10,WNW,293,5.0,-999.0,55,0.00,,,0.09,244,Wunderground v.1.15,2013-02-25 23:45:00,
2013-02-25 15:50:00,48.7,33.2,30.10,WNW,293,5.0,-999.0,55,0.00,,,0.09,244,Wunderground v.1.15,2013-02-25 23:50:00,
2013-02-25 15:55:00,48.0,33.0,30.11,NW,315,7.0,-999.0,56,0.00,,,0.09,100,Wunderground v.1.15,2013-02-25 23:55:00,
2013-02-25 15:57:00,47.5,32.0,30.10,WNW,282,5.0,14.0,55,0.00,,,0.09,63,weatherlink.com 1.10,2013-02-25 23:57:00,
2013-02-25 16:00:00,48.0,33.0,30.11,NW,315,7.0,-999.0,56,0.00,,,0.09,100,Wunderground v.1.15,2013-02-26 00:00:00,
2013-02-25 16:05:00,48.0,33.0,30.11,NW,315,7.0,-999.0,56,0.00,,,0.09,100,Wunderground v.1.15,2013-02-26 00:05:00,
2013-02-25 16:10:00,47.7,31.9,30.11,WNW,293,6.0,-999.0,54,0.00,,,0.09,185,Wunderground v.1.15,2013-02-26 00:10:00,
2013-02-25 16:12:00,48.0,32.0,30.11,NNW,329,5.0,16.0,54,0.00,,,0.09,186,weatherlink.com 1.10,2013-02-26 00:12:00,
2013-02-25 16:15:00,47.7,31.9,30.11,WNW,293,6.0,-999.0,54,0.00,,,0.09,185,Wunderground v.1.15,2013-02-26 00:15:00,
2013-02-25 16:20:00,47.7,31.9,30.11,WNW,293,6.0,-999.0,54,0.00,,,0.09,185,Wunderground v.1.15,2013-02-26 00:20:00,
2013-02-25 16:25:00,47.5,32.6,30.12,NW,315,6.0,-999.0,56,0.00,,,0.09,75,Wunderground v.1.15,2013-02-26 00:25:00,
2013-02-25 16:27:00,47.3,32.0,30.11,West,273,6.0,14.0,56,0.00,,,0.09,53,weatherlink.com 1.10,2013-02-26 00:27:00,
2013-02-25 16:30:00,47.5,32.6,30.12,NW,315,6.0,-999.0,56,0.00,,,0.09,75,Wunderground v.1.15,2013-02-26 00:30:00,
2013-02-25 16:35:00,47.5,32.6,30.12,NW,315,6.0,-999.0,56,0.00,,,0.09,75,Wunderground v.1.15,2013-02-26 00:35:00,
2013-02-25 16:40:00,46.7,32.3,30.13,WNW,293,5.0,-999.0,57,0.00,,,0.09,57,Wunderground v.1.15,2013-02-26 00:40:00,
2013-02-25 16:42:00,46.5,32.0,30.12,WSW,250,8.0,12.0,58,0.00,,,0.09,40,weatherlink.com 1.10,2013-02-26 00:42:00,
2013-02-25 16:45:00,46.7,32.3,30.13,WNW,293,5.0,-999.0,57,0.00,,,0.09,57,Wunderground v.1.15,2013-02-26 00:45:00,
2013-02-25 16:50:00,46.7,32.3,30.13,WNW,293,5.0,-999.0,57,0.00,,,0.09,57,Wunderground v.1.15,2013-02-26 00:50:00,
2013-02-25 16:55:00,46.1,32.6,30.13,West,270,5.0,-999.0,59,0.00,,,0.09,37,Wunderground v.1.15,2013-02-26 00:55:00,
2013-02-25 16:57:00,46.1,33.0,30.12,WNW,296,3.0,12.0,60,0.00,,,0.09,37,weatherlink.com 1.10,2013-02-26 00:57:00,
2013-02-25 17:00:00,46.1,32.6,30.13,West,270,5.0,-999.0,59,0.00,,,0.09,37,Wunderground v.1.15,2013-02-26 01:00:00,
2013-02-25 17:05:00,46.1,32.6,30.13,West,270,5.0,-999.0,59,0.00,,,0.09,37,Wunderground v.1.15,2013-02-26 01:05:00,
2013-02-25 17:10:00,46.1,33.0,30.14,WNW,293,5.0,-999.0,60,0.00,,,0.09,33,Wunderground v.1.15,2013-02-26 01:10:00,
2013-02-25 17:12:00,46.1,32.0,30.13,NW,315,5.0,10.0,59,0.00,,,0.09,26,weatherlink.com 1.10,2013-02-26 01:12:00,
2013-02-25 17:15:00,46.1,33.0,30.14,WNW,293,5.0,-999.0,60,0.00,,,0.09,33,Wunderground v.1.15,2013-02-26 01:15:00,
2013-02-25 17:20:00,46.1,33.0,30.14,WNW,293,5.0,-999.0,60,0.00,,,0.09,33,Wunderground v.1.15,2013-02-26 01:20:00,
2013-02-25 17:25:00,45.8,33.9,30.14,WNW,293,5.0,-999.0,63,0.00,,,0.09,17,Wunderground v.1.15,2013-02-26 01:25:00,
2013-02-25 17:27:00,45.6,33.0,30.14,WNW,300,2.0,12.0,62,0.00,,,0.09,11,weatherlink.com 1.10,2013-02-26 01:27:00,
2013-02-25 17:30:00,45.8,33.9,30.14,WNW,293,5.0,-999.0,63,0.00,,,0.09,17,Wunderground v.1.15,2013-02-26 01:30:00,
2013-02-25 17:35:00,45.8,33.9,30.14,WNW,293,5.0,-999.0,63,0.00,,,0.09,17,Wunderground v.1.15,2013-02-26 01:35:00,
2013-02-25 17:40:00,45.1,34.0,30.16,WNW,293,4.0,-999.0,65,0.00,,,0.09,4,Wunderground v.1.15,2013-02-26 01:40:00,
2013-02-25 17:43:00,44.9,34.0,30.14,NNE,19,3.0,9.0,65,0.00,,,0.09,0,weatherlink.com 1.10,2013-02-26 01:43:00,
2013-02-25 17:45:00,45.1,34.0,30.16,WNW,293,4.0,-999.0,65,0.00,,,0.09,4,Wunderground v.1.15,2013-02-26 01:45:00,
2013-02-25 17:50:00,45.1,34.0,30.16,WNW,293,4.0,-999.0,65,0.00,,,0.09,4,Wunderground v.1.15,2013-02-26 01:50:00,
2013-02-25 17:55:00,44.5,33.8,30.16,NW,315,2.0,-999.0,66,0.00,,,0.09,0,Wunderground v.1.15,2013-02-26 01:55:00,
2013-02-25 17:58:00,44.4,34.0,30.16,South,188,0.0,9.0,66,0.00,,,0.09,0,weatherlink.com 1.10,2013-02-26 01:58:00,
2013-02-25 18:00:00,44.5,33.8,30.16,NW,315,2.0,-999.0,66,0.00,,,0.09,0,Wunderground v.1.15,2013-02-26 02:00:00,
2013-02-25 18:05:00,44.5,33.8,30.16,NW,315,2.0,-999.0,66,0.00,,,0.09,0,Wunderground v.1.15,2013-02-26 02:05:00,
2013-02-25 18:10:00,44.1,33.5,30.17,SE,135,1.0,-999.0,66,0.00,,,0.09,0,Wunderground v.1.15,2013-02-26 02:10:00,
2013-02-25 18:13:00,44.0,33.0,30.16,NNW,329,1.0,3.0,66,0.00,,,0.09,0,weatherlink.com 1.10,2013-02-26 02:13:00,
2013-02-25 18:15:00,44.1,33.5,30.17,SE,135,1.0,-999.0,66,0.00,,,0.09,0,Wunderground v.1.15,2013-02-26 02:15:00,
2013-02-25 18:20:00,44.1,33.5,30.17,SE,135,1.0,-999.0,66,0.00,,,0.09,0,Wunderground v.1.15,2013-02-26 02:20:00,
2013-02-25 18:25:00,44.0,33.0,30.17,NW,315,1.0,-999.0,65,0.00,,,0.09,0,Wunderground v.1.15,2013-02-26 02:25:00,
2013-02-25 18:28:00,44.0,32.0,30.16,NW,313,1.0,7.0,64,0.00,,,0.09,0,weatherlink.com 1.10,2013-02-26 02:28:00,
2013-02-25 18:30:00,44.0,33.0,30.17,NW,315,1.0,-999.0,65,0.00,,,0.09,0,Wunderground v.1.15,2013-02-26 02:30:00,
2013-02-25 18:35:00,44.0,33.0,30.17,NW,315,1.0,-999.0,65,0.00,,,0.09,0,Wunderground v.1.15,2013-02-26 02:35:00,
2013-02-25 18:40:00,44.0,33.4,30.19,NW,315,1.0,-999.0,66,0.00,,,0.09,0,Wunderground v.1.15,2013-02-26 02:40:00,
2013-02-25 18:43:00,44.1,33.0,30.18,WNW,282,0.0,5.0,65,0.00,,,0.09,0,weatherlink.com 1.10,2013-02-26 02:43:00,
2013-02-25 18:45:00,44.0,33.4,30.19,NW,315,1.0,-999.0,66,0.00,,,0.09,0,Wunderground v.1.15,2013-02-26 02:45:00,
2013-02-25 18:50:00,44.0,33.4,30.19,NW,315,1.0,-999.0,66,0.00,,,0.09,0,Wunderground v.1.15,2013-02-26 02:50:00,
2013-02-25 18:55:00,44.1,32.7,30.19,West,270,2.0,-999.0,64,0.00,,,0.09,0,Wunderground v.1.15,2013-02-26 02:55:00,
2013-02-25 18:58:00,44.2,33.0,30.19,WNW,298,3.0,5.0,64,0.00,,,0.09,0,weatherlink.com 1.10,2013-02-26 02:58:00,
2013-02-25 19:00:00,44.1,32.7,30.19,West,270,2.0,-999.0,64,0.00,,,0.09,0,Wunderground v.1.15,2013-02-26 03:00:00,
2013-02-25 19:05:00,44.1,32.7,30.19,West,270,2.0,-999.0,64,0.00,,,0.09,0,Wunderground v.1.15,2013-02-26 03:05:00,
2013-02-25 19:10:00,44.2,33.2,30.19,WNW,293,2.0,-999.0,65,0.00,,,0.09,0,Wunderground v.1.15,2013-02-26 03:10:00,
2013-02-25 19:14:00,44.2,33.0,30.19,North,355,1.0,5.0,65,0.00,,,0.09,0,weatherlink.com 1.10,2013-02-26 03:14:00,
2013-02-25 19:15:00,44.2,33.2,30.19,WNW,293,2.0,-999.0,65,0.00,,,0.09,0,Wunderground v.1.15,2013-02-26 03:15:00,
2013-02-25 19:20:00,44.2,33.2,30.19,WNW,293,2.0,-999.0,65,0.00,,,0.09,0,Wunderground v.1.15,2013-02-26 03:20:00,
2013-02-25 19:25:00,44.1,33.5,30.20,West,270,0.0,-999.0,66,0.00,,,0.09,0,Wunderground v.1.15,2013-02-26 03:25:00,
2013-02-25 19:28:00,44.1,33.0,30.19,West,272,0.0,2.0,65,0.00,,,0.09,0,weatherlink.com 1.10,2013-02-26 03:28:00,
2013-02-25 19:30:00,44.1,33.5,30.20,West,270,0.0,-999.0,66,0.00,,,0.09,0,Wunderground v.1.15,2013-02-26 03:30:00,
2013-02-25 19:35:00,44.1,33.5,30.20,West,270,0.0,-999.0,66,0.00,,,0.09,0,Wunderground v.1.15,2013-02-26 03:35:00,
2013-02-25 19:40:00,43.7,33.8,30.21,South,180,0.0,-999.0,68,0.00,,,0.09,0,Wunderground v.1.15,2013-02-26 03:40:00,
2013-02-25 19:43:00,43.6,33.0,30.20,West,272,0.0,1.0,67,0.00,,,0.09,0,weatherlink.com 1.10,2013-02-26 03:43:00,
2013-02-25 19:45:00,43.7,33.8,30.21,South,180,0.0,-999.0,68,0.00,,,0.09,0,Wunderground v.1.15,2013-02-26 03:45:00,
2013-02-25 19:50:00,43.7,33.8,30.21,South,180,0.0,-999.0,68,0.00,,,0.09,0,Wunderground v.1.15,2013-02-26 03:50:00,
2013-02-25 19:55:00,43.1,34.7,30.21,SSE,158,1.0,-999.0,72,0.00,,,0.09,0,Wunderground v.1.15,2013-02-26 03:55:00,
2013-02-25 19:58:00,42.8,35.0,30.21,SSW,194,4.0,6.0,73,0.00,,,0.09,0,weatherlink.com 1.10,2013-02-26 03:58:00,
2013-02-25 20:00:00,43.1,34.7,30.21,SSE,158,1.0,-999.0,72,0.00,,,0.09,0,Wunderground v.1.15,2013-02-26 04:00:00,
2013-02-25 20:05:00,43.1,34.7,30.21,SSE,158,1.0,-999.0,72,0.00,,,0.09,0,Wunderground v.1.15,2013-02-26 04:05:00,
2013-02-25 20:10:00,43.1,35.0,30.22,NW,315,1.0,-999.0,73,0.00,,,0.09,0,Wunderground v.1.15,2013-02-26 04:10:00,
2013-02-25 20:13:00,43.2,35.0,30.21,NW,304,2.0,3.0,73,0.00,,,0.09,0,weatherlink.com 1.10,2013-02-26 04:13:00,
2013-02-25 20:15:00,43.1,35.0,30.22,NW,315,1.0,-999.0,73,0.00,,,0.09,0,Wunderground v.1.15,2013-02-26 04:15:00,
2013-02-25 20:20:00,43.1,35.0,30.22,NW,315,1.0,-999.0,73,0.00,,,0.09,0,Wunderground v.1.15,2013-02-26 04:20:00,
2013-02-25 20:25:00,43.0,34.9,30.23,ESE,113,0.0,-999.0,73,0.00,,,0.09,0,Wunderground v.1.15,2013-02-26 04:25:00,
2013-02-25 20:28:00,42.9,35.0,30.22,ESE,112,0.0,2.0,73,0.00,,,0.09,0,weatherlink.com 1.10,2013-02-26 04:28:00,
2013-02-25 20:30:00,43.0,34.9,30.23,ESE,113,0.0,-999.0,73,0.00,,,0.09,0,Wunderground v.1.15,2013-02-26 04:30:00,
2013-02-25 20:35:00,43.0,34.9,30.23,ESE,113,0.0,-999.0,73,0.00,,,0.09,0,Wunderground v.1.15,2013-02-26 04:35:00,
2013-02-25 20:40:00,42.5,35.5,30.24,ESE,113,0.0,-999.0,76,0.00,,,0.09,0,Wunderground v.1.15,2013-02-26 04:40:00,
2013-02-25 20:43:00,42.2,35.0,30.23,ENE,66,0.0,3.0,76,0.00,,,0.09,0,weatherlink.com 1.10,2013-02-26 04:43:00,
2013-02-25 20:45:00,42.5,35.5,30.24,ESE,113,0.0,-999.0,76,0.00,,,0.09,0,Wunderground v.1.15,2013-02-26 04:45:00,
2013-02-25 20:50:00,42.5,35.5,30.24,ESE,113,0.0,-999.0,76,0.00,,,0.09,0,Wunderground v.1.15,2013-02-26 04:50:00,
2013-02-25 20:55:00,41.9,35.9,30.24,ENE,68,0.0,-999.0,79,0.00,,,0.09,0,Wunderground v.1.15,2013-02-26 04:55:00,
2013-02-25 20:58:00,41.8,35.0,30.24,ENE,63,0.0,0.0,78,0.00,,,0.09,0,weatherlink.com 1.10,2013-02-26 04:58:00,
2013-02-25 21:00:00,41.9,35.9,30.24,ENE,68,0.0,-999.0,79,0.00,,,0.09,0,Wunderground v.1.15,2013-02-26 05:00:00,
2013-02-25 21:05:00,41.9,35.9,30.24,ENE,68,0.0,-999.0,79,0.00,,,0.09,0,Wunderground v.1.15,2013-02-26 05:05:00,
2013-02-25 21:10:00,41.5,36.1,30.25,NE,45,0.0,-999.0,81,0.00,,,0.09,0,Wunderground v.1.15,2013-02-26 05:10:00,
2013-02-25 21:13:00,41.3,36.0,30.24,NE,53,0.0,1.0,81,0.00,,,0.09,0,weatherlink.com 1.10,2013-02-26 05:13:00,
2013-02-25 21:15:00,41.5,36.1,30.25,NE,45,0.0,-999.0,81,0.00,,,0.09,0,Wunderground v.1.15,2013-02-26 05:15:00,
2013-02-25 21:20:00,41.5,36.1,30.25,NE,45,0.0,-999.0,81,0.00,,,0.09,0,Wunderground v.1.15,2013-02-26 05:20:00,
2013-02-25 21:25:00,40.8,35.7,30.25,NE,45,0.0,-999.0,82,0.00,,,0.09,0,Wunderground v.1.15,2013-02-26 05:25:00,
2013-02-25 21:28:00,40.7,36.0,30.25,NE,53,0.0,1.0,82,0.00,,,0.09,0,weatherlink.com 1.10,2013-02-26 05:28:00,
2013-02-25 21:30:00,40.8,35.7,30.25,NE,45,0.0,-999.0,82,0.00,,,0.09,0,Wunderground v.1.15,2013-02-26 05:30:00,
2013-02-25 21:35:00,40.8,35.7,30.25,NE,45,0.0,-999.0,82,0.00,,,0.09,0,Wunderground v.1.15,2013-02-26 05:35:00,
2013-02-25 21:40:00,40.3,35.8,30.26,SSE,158,0.0,-999.0,84,0.00,,,0.09,0,Wunderground v.1.15,2013-02-26 05:40:00,
2013-02-25 21:43:00,40.3,36.0,30.25,SSW,207,1.0,2.0,84,0.00,,,0.09,0,weatherlink.com 1.10,2013-02-26 05:43:00,
2013-02-25 21:45:00,40.3,35.8,30.26,SSE,158,0.0,-999.0,84,0.00,,,0.09,0,Wunderground v.1.15,2013-02-26 05:45:00,
2013-02-25 21:50:00,40.3,35.8,30.26,SSE,158,0.0,-999.0,84,0.00,,,0.09,0,Wunderground v.1.15,2013-02-26 05:50:00,
2013-02-25 21:55:00,40.2,35.8,30.26,ESE,113,0.0,-999.0,84,0.00,,,0.09,0,Wunderground v.1.15,2013-02-26 05:55:00,
2013-02-25 21:58:00,40.2,36.0,30.26,ESE,107,0.0,3.0,84,0.00,,,0.09,0,weatherlink.com 1.10,2013-02-26 05:58:00,
2013-02-25 22:00:00,40.2,35.8,30.26,ESE,113,0.0,-999.0,84,0.00,,,0.09,0,Wunderground v.1.15,2013-02-26 06:00:00,
2013-02-25 22:05:00,40.2,35.8,30.26,ESE,113,0.0,-999.0,84,0.00,,,0.09,0,Wunderground v.1.15,2013-02-26 06:05:00,
2013-02-25 22:10:00,40.2,36.1,30.27,ESE,113,0.0,-999.0,85,0.00,,,0.09,0,Wunderground v.1.15,2013-02-26 06:10:00,
2013-02-25 22:13:00,40.2,36.0,30.26,ESE,106,0.0,2.0,85,0.00,,,0.09,0,weatherlink.com 1.10,2013-02-26 06:13:00,
2013-02-25 22:15:00,40.2,36.1,30.27,ESE,113,0.0,-999.0,85,0.00,,,0.09,0,Wunderground v.1.15,2013-02-26 06:15:00,
2013-02-25 22:20:00,40.2,36.1,30.27,ESE,113,0.0,-999.0,85,0.00,,,0.09,0,Wunderground v.1.15,2013-02-26 06:20:00,
2013-02-25 22:25:00,39.8,36.0,30.27,ESE,113,0.0,-999.0,86,0.00,,,0.09,0,Wunderground v.1.15,2013-02-26 06:25:00,
2013-02-25 22:28:00,39.6,36.0,30.27,ESE,106,0.0,1.0,86,0.00,,,0.09,0,weatherlink.com 1.10,2013-02-26 06:28:00,
2013-02-25 22:30:00,39.8,36.0,30.27,ESE,113,0.0,-999.0,86,0.00,,,0.09,0,Wunderground v.1.15,2013-02-26 06:30:00,
2013-02-25 22:35:00,39.8,36.0,30.27,ESE,113,0.0,-999.0,86,0.00,,,0.09,0,Wunderground v.1.15,2013-02-26 06:35:00,
2013-02-25 22:40:00,39.5,35.7,30.27,West,270,0.0,-999.0,86,0.00,,,0.09,0,Wunderground v.1.15,2013-02-26 06:40:00,
2013-02-25 22:43:00,39.6,36.0,30.27,West,261,0.0,2.0,86,0.00,,,0.09,0,weatherlink.com 1.10,2013-02-26 06:43:00,
2013-02-25 22:45:00,39.5,35.7,30.27,West,270,0.0,-999.0,86,0.00,,,0.09,0,Wunderground v.1.15,2013-02-26 06:45:00,
2013-02-25 22:50:00,39.5,35.7,30.27,West,270,0.0,-999.0,86,0.00,,,0.09,0,Wunderground v.1.15,2013-02-26 06:50:00,
2013-02-25 22:55:00,39.7,35.9,30.27,South,180,0.0,-999.0,86,0.00,,,0.09,0,Wunderground v.1.15,2013-02-26 06:55:00,
2013-02-25 22:58:00,39.7,36.0,30.27,South,182,0.0,1.0,86,0.00,,,0.09,0,weatherlink.com 1.10,2013-02-26 06:58:00,
2013-02-25 23:00:00,39.7,35.9,30.27,South,180,0.0,-999.0,86,0.00,,,0.09,0,Wunderground v.1.15,2013-02-26 07:00:00,
2013-02-25 23:05:00,39.7,35.9,30.27,South,180,0.0,-999.0,86,0.00,,,0.09,0,Wunderground v.1.15,2013-02-26 07:05:00,
2013-02-25 23:10:00,39.8,35.7,30.27,South,180,0.0,-999.0,85,0.00,,,0.09,0,Wunderground v.1.15,2013-02-26 07:10:00,
2013-02-25 23:13:00,39.8,36.0,30.27,South,180,0.0,1.0,85,0.00,,,0.09,0,weatherlink.com 1.10,2013-02-26 07:13:00,
2013-02-25 23:15:00,39.8,35.7,30.27,South,180,0.0,-999.0,85,0.00,,,0.09,0,Wunderground v.1.15,2013-02-26 07:15:00,
2013-02-25 23:20:00,39.8,35.7,30.27,South,180,0.0,-999.0,85,0.00,,,0.09,0,Wunderground v.1.15,2013-02-26 07:20:00,
2013-02-25 23:25:00,39.6,35.8,30.28,South,180,0.0,-999.0,86,0.00,,,0.09,0,Wunderground v.1.15,2013-02-26 07:25:00,
2013-02-25 23:28:00,39.5,35.0,30.27,South,180,0.0,1.0,85,0.00,,,0.09,0,weatherlink.com 1.10,2013-02-26 07:28:00,
2013-02-25 23:30:00,39.6,35.8,30.28,South,180,0.0,-999.0,86,0.00,,,0.09,0,Wunderground v.1.15,2013-02-26 07:30:00,
2013-02-25 23:35:00,39.6,35.8,30.28,South,180,0.0,-999.0,86,0.00,,,0.09,0,Wunderground v.1.15,2013-02-26 07:35:00,
2013-02-25 23:40:00,39.0,35.5,30.28,South,180,0.0,-999.0,87,0.00,,,0.09,0,Wunderground v.1.15,2013-02-26 07:40:00,
2013-02-25 23:43:00,38.8,35.0,30.28,South,180,0.0,1.0,86,0.00,,,0.09,0,weatherlink.com 1.10,2013-02-26 07:43:00,
2013-02-25 23:45:00,39.0,35.5,30.28,South,180,0.0,-999.0,87,0.00,,,0.09,0,Wunderground v.1.15,2013-02-26 07:45:00,
2013-02-25 23:50:00,39.0,35.5,30.28,South,180,0.0,-999.0,87,0.00,,,0.09,0,Wunderground v.1.15,2013-02-26 07:50:00,
2013-02-25 23:55:00,38.6,35.1,30.28,South,180,1.0,-999.0,87,0.00,,,0.09,0,Wunderground v.1.15,2013-02-26 07:55:00,
2013-02-25 23:58:00,38.6,35.0,30.28,SSW,209,0.0,3.0,87,0.00,,,0.09,0,weatherlink.com 1.10,2013-02-26 07:58:00,